www.pogodaiklimat.ru

ПОГОДА в Хэнкоке, MI

  • Прогноз погоды в Хэнкоке
  • Монитор погоды в Хэнкоке
  • Климат в Хэнкоке

АРХИВ ПОГОДЫ в Хэнкоке

Время (UTC), дата Ветер
(напр.,м/с)
 
Видим.   Явления Облачность Т
(С)
Тd
(С)
f
(%)
Тe
(С)
Тes
(С)
Комфортность

P
(гПа)

Po
(гПа)
Тmin
(С)
Tmax
(С)
R
(мм)
SD
(см)
23:53 24.03 С  16 км    ясно  -5.0  -15.6  43  -8  -8    1028.2  986.3         
00:53 25.03 С  16 км    ясно  -7.8  -15.6  53  -13  -13    1028.6  986.6         
01:53 25.03 СЗ  16 км    ясно  -8.3  -15.6  56  -13  -13    1028.7  986.6         
02:53 25.03 СЗ  16 км    ясно  -10.6  -16.1  64  -17  -17    1028.9  986.6         
03:53 25.03 СЗ  16 км    ясно  -13.3  -17.2  72  -20  -20    1029.2  986.6         
04:53 25.03 З  16 км    ясно  -11.1  -16.7  63  -15  -15    1029.3  987.3  -13.3  -4.4     
05:53 25.03 З  16 км    ясно  -10.0  -13.9  73  -15  -15    1029.2  986.9         
06:53 25.03 З  16 км    ясно  -8.9  -12.2  77  -12  -12    1028.9  986.9         
07:53 25.03 СЗ  16 км    ясно  -7.2  -11.1  74  -14  -14    1028.7  986.6         
08:53 25.03 СЗ  16 км    ясно  -8.3  -13.9  64  -15  -15    1028.7  986.6         
09:53 25.03 СЗ  16 км    ясно  -10.0  -15.0  67  -17  -17    1029.1  986.9         
10:53 25.03 СЗ  16 км    ясно  -11.7  -14.4  80  -19  -19    1029.5  987.3  -11.7  -7.2     
11:53 25.03 СЗ  16 км    ясно  -8.9  -13.3  70  -16  -16    1030.0  987.9         
12:53 25.03 З  16 км    ясно  -5.0  -11.7  59  -11  -11    1030.3  988.2         
13:53 25.03 СЗ  16 км    ясно  -2.8  -12.8  46  -9  -8    1030.3  988.2         
14:53 25.03 З  16 км    ясно  -1.7  -14.4  37  -9  -8    1030.4  988.2         
15:53 25.03 З  16 км    ясно  -1.7  -15.6  34  -8  -6    1030.3  987.9         
16:53 25.03 З  16 км    ясно  -1.1  -15.0  34  -8  -6    1030.0  987.9  -11.7  -1.1     
17:53 25.03 СЗ  16 км    ясно  -0.6  -15.0  33  -7  -6    1029.3  987.3         
18:53 25.03 З  16 км    ясно  0.0  -12.8  37  -7  -5    1028.6  986.6         
19:53 25.03 З  16 км    ясно  0.0  -12.8  37  -6  -5    1028.2  986.3         
20:53 25.03 З  16 км    ясно  0.0  -12.8  37  -6  -4    1028.1  986.3         
21:53 25.03 З  16 км    ясно  0.0  -14.4  33  -5  -4    1028.3  986.3         
22:53 25.03 З  16 км    ясно  -1.1  -14.4  36  -6  -6    1028.3  986.3  -1.1  0.0     
23:53 25.03 З  16 км    ясно  -2.8  -15.0  38  -9  -9    1028.1  986.0         
00:53 26.03 СЗ  16 км    ясно  -5.0  -13.9  50  -11  -11    1028.4  986.3         
01:53 26.03 СЗ  16 км    ясно  -5.6  -15.0  47  -12  -12    1028.4  986.6         
02:53 26.03 СЗ  16 км    ясно  -2.8  -16.7  33  -7  -7    1028.6  986.9         
03:53 26.03 СЗ  16 км    ясно  -7.2  -15.6  51  -13  -13    1028.9  986.9         
04:53 26.03 СЗ  16 км    ясно  -9.4  -15.0  64  -15  -15    1029.1  986.9  -10.0  -1.1     
05:53 26.03 СЗ  16 км    ясно  -10.0  -14.4  70  -16  -16    1029.3  987.3         
06:53 26.03 СЗ  16 км    ясно  -11.7  -15.0  76  -18  -18    1029.5  987.3         
07:53 26.03 СЗ  16 км    ясно  -9.4  -11.7  83  -15  -15    1029.2  987.3         
08:53 26.03   16 км    ясно  -11.1  -14.4  77  -11  -11    1029.3  987.3         
09:53 26.03   16 км    ясно  -10.6  -14.4  74  -11  -11    1029.6  987.6         
10:53 26.03   16 км    ясно  -6.7  -14.4  54  -7  -7    1029.7  987.6  -12.2  -6.7     
11:53 26.03   16 км    ясно  -5.0  -13.9  50  -5  -5    1030.0  987.9         
12:53 26.03 ЮЗ  16 км    ясно  0.0  -13.3  36  -3  -2    1029.7  987.9         
13:53 26.03 Ю  16 км    ясно  +1.1  -12.8  35  -2  0    1029.7  987.9         
14:53 26.03 Ю  16 км    ясно  +2.8  -13.3  29  0  +6    1029.2  987.6         
15:53 26.03   16 км    ясно  +3.9  -14.4  25  +4  +16  опасность
простуды 
1028.7  986.9         
16:53 26.03 З  16 км    ясно  +4.4  -13.3  26  +1  +6    1028.2  986.6  -9.4  +5.0     
17:53 26.03 З  16 км    ясно  +4.4  -12.2  29  0  +4    1027.9  986.0         
18:53 26.03 З  16 км    ясно  +5.0  -11.7  29  0  +2    1027.2  985.3         
19:53 26.03 З  16 км    ясно  +5.0  -12.2  28  +2  +8    1025.9  984.3         
20:53 26.03 СЗ  16 км    ясно  +5.6  -11.1  29  +4  +9    1025.4  983.7         
21:53 26.03 С  16 км    ясно  +4.4  -13.9  25  +2  +5    1024.4  982.7         
22:53 26.03 В  16 км    ясно  +2.2  -8.9  44  -1  -0    1024.0  982.4  +2.2  +7.8     

 

Местоположение метеостанции Houghton County Memorial Airport: широта 47.1683 долгота -88.4889 высота над уровнем моря 334 м.

В архиве по умолчанию представлена погода в Хэнкоке за последние 1-2 суток. Обновление информации о фактической погоде в базе происходит ежечасно! Архивные данные за месяц целиком и за предыдущие месяцы Вы можете получить, выбрав интересующий диапазон дат из раскрывающегося списка и нажав кнопку "Ввод!".

Внимание! Архив погоды МЕТАР в базе сайта хранится не более 60 дней. Нет смысла пытаться выбрать более раннюю дату.

Внимание! Время в таблицах - всемирное. Для получения местного времени необходимо прибавить поправку, которая в Хэнкоке равна -5 ч.

Ветер - указаны скорость ветра в м/с и направление, откуда дует ветер: С - северный, СВ - северо-восточный, В - восточный, ЮВ - юго-восточный, Ю - южный, ЮЗ - юго-западный, З - западный, СЗ - северо-западный.
Видимость - горизонтальная дальность видимости в метрах или километрах. При видимости от 1 до 10 км при отсутствии осадков обычно наблюдается дымка, при ухудшении видимости до 1 км и менее - туман. В сухую погоду видимость может ухудшаться дымом, пылью или мглою.
Атмосферные явления - указаны явления, наблюдавшиеся в указанный момент времени.
Облачность - указаны через наклонную черту верхняя и нижняя облачность в баллах и высота нижней границы облаков в метрах. Внимание: облачность, как и прочие метеорологические величины в США измеряются автоматическими метеостанциями. Указанные значения в баллах носят условный характер и показывают процент времени, в течение которого, в среднем, лазерный луч высотомера отражался от облаков обратно.
T - Температура воздуха - температура, измеренная на высоте 2 м над землей.
Td - Температура точки росы - температура, при понижении до которой содержащийся в воздухе водяной пар достигнет насыщения.
f - Относительная влажность воздуха - влажноcть воздуха, измеренная на высоте 2 м над землей.
Te - Эффективная температура - температура, которую ощущает одетый по сезону человек в тени. Характеристика душности погоды. При расчете учитывается влияние влажности воздуха и скорости ветра на теплоощущения человека.
Tes - Эффективная температура на солнце - температура, которую ощущает человек, с поправкой на солнечный нагрев. Характеристика знойности погоды. Зависит от высоты солнца над горизонтом, облачности и скорости ветра. Ночью, в пасмурную погоду, а также при ветре 12 м/с и более поправка равна нулю.
P - Атмосферное давление - приведенное к уровню моря атмосферное давление.
Po - Атмосферное давление - измеренное на уровне метеостанции атмосферное давление.
Tmin - Минимальная температура - минимум температуры воздуха на высоте 2 м над землей.
Tmax - Максимальная температура - максимум температуры воздуха на высоте 2 м над землей.
R - Количество осадков - Количество выпавших осадков за 3 или 6 часов, мм.
SD - Снежный покров - Высота снежного покрова, см.